DW8790 Maspalomas ES current weather conditions

sailwx.info

Wind from 238 at 6 knots gusting 14

Air temperature 24.4° C
Dewpoint 16.4° C

Last reported at 2018-Jun-25 14:59 UTC.
Time now 2018-Jun-25 15:22 UTC

Location: N 27°46' W 015°34'.
View on Google Maps.

See reports from other nearby stations

  
Tides and Currents Weather Stations Pressure Air Temp Water Temp Dewpoint Dewpoint Depression Visibility Wind Speed Wind Dir Waves Ship Positions
date/time (UTC)wind fromknots sea level pressurealtimeterstation pressurevisibilityair tempwater tempwave heightnotes
2018-Jun-25 15:09 244 9 gusting 14 24.4
2018-Jun-25 15:04 219 6 gusting 12 24.4
2018-Jun-25 14:59 238 6 gusting 14 24.4
2018-Jun-25 14:54 231 3 gusting 12 23.9
2018-Jun-25 14:49 174 5 gusting 10 24.4
2018-Jun-25 14:44 170 6 gusting 11 25.0
2018-Jun-25 14:39 199 6 gusting 11 25.0
2018-Jun-25 14:34 194 6 gusting 12 25.6
2018-Jun-25 14:29 183 6 gusting 10 26.1
2018-Jun-25 14:24 228 6 gusting 14 25.6
2018-Jun-25 14:19 187 5 gusting 8 26.1
2018-Jun-25 14:14 227 5 gusting 13 26.7
2018-Jun-25 14:09 169 5 gusting 10 28.3
2018-Jun-25 14:04 171 3 gusting 8 28.9
2018-Jun-25 13:59 118 2 gusting 8 28.9
2018-Jun-25 13:54 125 4 gusting 10 28.3
2018-Jun-25 13:49 124 5 gusting 12 28.3
2018-Jun-25 13:44 126 5 gusting 10 28.3
2018-Jun-25 13:39 104 4 gusting 10 28.3
2018-Jun-25 13:34 100 4 gusting 11 28.3
2018-Jun-25 13:29 112 6 gusting 12 28.3
2018-Jun-25 13:24 095 5 gusting 10 28.3
2018-Jun-25 13:19 100 5 gusting 11 28.3
2018-Jun-25 13:14 115 6 gusting 13 28.3
2018-Jun-25 13:09 121 5 gusting 10 28.3
2018-Jun-25 13:04 104 5 gusting 13 27.8
2018-Jun-25 12:59 114 6 gusting 10 27.8
2018-Jun-25 12:54 122 5 gusting 11 27.2
2018-Jun-25 12:49 118 6 gusting 13 27.2
2018-Jun-25 12:44 098 5 gusting 11 27.2
2018-Jun-25 12:39 114 6 gusting 13 27.2
2018-Jun-25 12:34 109 5 gusting 12 26.7
2018-Jun-25 12:29 102 6 gusting 19 26.7
2018-Jun-25 12:24 099 5 gusting 14 26.7
2018-Jun-25 12:19 109 5 gusting 12 26.7
2018-Jun-25 12:14 104 6 gusting 13 26.7
2018-Jun-25 12:09 127 6 gusting 12 26.7
2018-Jun-25 12:04 114 6 gusting 12 26.7
2018-Jun-25 11:59 096 6 gusting 13 26.7
2018-Jun-25 11:54 123 5 gusting 11 26.1
2018-Jun-25 11:49 116 6 gusting 13 26.1
2018-Jun-25 11:44 116 5 gusting 10 25.6
2018-Jun-25 11:39 104 6 gusting 13 25.6
2018-Jun-25 11:34 108 6 gusting 14 25.6
2018-Jun-25 11:29 110 6 gusting 13 25.6
2018-Jun-25 11:24 119 6 gusting 14 25.0
2018-Jun-25 11:19 112 6 gusting 12 25.0
2018-Jun-25 11:14 115 7 gusting 12 25.6
2018-Jun-25 11:09 114 5 gusting 13 25.0
2018-Jun-25 11:04 112 7 gusting 13 25.0
2018-Jun-25 10:59 125 5 gusting 12 25.0
2018-Jun-25 10:54 105 6 gusting 13 25.0
2018-Jun-25 10:49 124 4 gusting 10 25.0
2018-Jun-25 10:44 091 5 gusting 13 24.4
2018-Jun-25 10:39 110 6 gusting 13 24.4
2018-Jun-25 10:34 118 4 gusting 13 23.9
2018-Jun-25 10:29 106 6 gusting 11 23.9
2018-Jun-25 10:24 118 6 gusting 13 23.9
2018-Jun-25 10:19 112 6 gusting 10 23.9
2018-Jun-25 10:14 119 6 gusting 11 23.3
2018-Jun-25 10:09 123 6 gusting 12 23.3
2018-Jun-25 10:04 125 6 gusting 12 23.3
2018-Jun-25 09:59 123 5 gusting 11 23.3
2018-Jun-25 09:54 126 6 gusting 11 23.3
2018-Jun-25 09:49 123 6 gusting 12 23.3
2018-Jun-25 09:44 151 5 gusting 10 22.8
2018-Jun-25 09:39 116 4 gusting 8 22.8
2018-Jun-25 09:34 113 4 gusting 10 22.2
2018-Jun-25 09:29 136 2 gusting 6 21.7
2018-Jun-25 09:25 166 1 gusting 6 21.7
2018-Jun-25 09:19 125 3 gusting 6 21.7
2018-Jun-25 09:14 159 3 gusting 7 21.1
2018-Jun-25 09:09 223 2 gusting 6 21.1
2018-Jun-25 09:04 201 1 gusting 5 21.1
2018-Jun-25 08:59 247 2 gusting 6 20.6
2018-Jun-25 08:54 247 1 gusting 5 21.1
2018-Jun-25 08:49 203 1 gusting 4 20.6
2018-Jun-25 08:44 219 4 gusting 6 20.6
2018-Jun-25 08:39 148 0 gusting 2 20.6
2018-Jun-25 08:34 209 1 gusting 2 20.6
2018-Jun-25 08:29 154 0 gusting 2 20.6
2018-Jun-25 08:24 203 3 gusting 5 20.6
2018-Jun-25 08:19 182 1 gusting 4 20.6
2018-Jun-25 08:14 254 20.6
2018-Jun-25 08:09 254 0 gusting 2 20.6
2018-Jun-25 08:04 254 1 gusting 2 20.0
2018-Jun-25 07:59 247 0 gusting 2 20.0
2018-Jun-25 07:54 301 1 gusting 4 20.0
2018-Jun-25 07:49 291 0 gusting 2 20.0
2018-Jun-25 07:44 355 0 gusting 2 20.0
2018-Jun-25 07:39 333 0 gusting 2 19.4
2018-Jun-25 07:34 333 0 gusting 2 19.4
2018-Jun-25 07:29 333 0 gusting 2 19.4
2018-Jun-25 07:24 333 0 gusting 1 19.4
2018-Jun-25 07:19 333 0 gusting 1 19.4
2018-Jun-25 07:14 333 19.4
2018-Jun-25 07:09 333 18.9
2018-Jun-25 07:04 333 18.9
2018-Jun-25 06:59 333 18.9
2018-Jun-25 06:54 333 18.9
2018-Jun-25 06:49 333 18.3
2018-Jun-25 06:44 333 18.3
2018-Jun-25 06:39 333 18.3
2018-Jun-25 06:34 333 18.3
2018-Jun-25 06:29 333 18.3
2018-Jun-25 06:24 333 17.8
2018-Jun-25 06:19 333 17.8
2018-Jun-25 06:14 333 17.8
2018-Jun-25 06:09 333 17.8
2018-Jun-25 06:04 333 17.8
2018-Jun-25 05:59 333 17.8
2018-Jun-25 05:54 333 17.8
2018-Jun-25 05:49 333 17.8
2018-Jun-25 05:44 333 17.8
2018-Jun-25 05:39 333 17.8
2018-Jun-25 05:34 333 17.8
2018-Jun-25 05:29 333 17.8
2018-Jun-25 05:24 333 17.8
2018-Jun-25 05:19 333 17.8
2018-Jun-25 05:14 333 17.8
2018-Jun-25 05:09 333 18.3
2018-Jun-25 05:04 333 18.3
2018-Jun-25 04:59 333 18.3
2018-Jun-25 04:54 333 18.3
2018-Jun-25 04:49 333 18.3
2018-Jun-25 04:44 333 0 gusting 2 18.3
2018-Jun-25 04:39 326 0 gusting 2 18.3
2018-Jun-25 04:34 334 0 gusting 1 18.3
2018-Jun-25 04:29 176 0 gusting 2 18.3
2018-Jun-25 04:24 171 18.3
2018-Jun-25 04:19 171 18.3
2018-Jun-25 04:14 171 18.3
2018-Jun-25 04:09 133 18.3
2018-Jun-25 04:04 133 18.3
2018-Jun-25 03:59 133 18.3
2018-Jun-25 03:54 133 18.3
2018-Jun-25 03:49 133 18.3
2018-Jun-25 03:44 133 18.3
2018-Jun-25 03:39 133 18.3
2018-Jun-25 03:34 133 18.3
2018-Jun-25 03:29 199 18.9
2018-Jun-25 03:19 199 18.9
2018-Jun-25 03:14 199 18.9
2018-Jun-25 03:09 199 18.9
2018-Jun-25 03:04 199 18.9
2018-Jun-25 02:59 199 18.9
2018-Jun-25 02:54 199 18.9
2018-Jun-25 02:49 199 18.9
2018-Jun-25 02:44 199 18.9
2018-Jun-25 02:39 199 18.9
2018-Jun-25 02:34 199 18.9
2018-Jun-25 02:29 199 18.9
2018-Jun-25 02:24 199 18.9
2018-Jun-25 02:19 199 18.9
2018-Jun-25 02:14 199 18.9
2018-Jun-25 02:09 199 18.9
2018-Jun-25 02:04 199 18.9
2018-Jun-25 01:59 199 18.9
2018-Jun-25 01:54 199 18.9
2018-Jun-25 01:49 199 18.9
2018-Jun-25 01:44 199 18.9
2018-Jun-25 01:39 199 18.9
2018-Jun-25 01:34 199 18.9
2018-Jun-25 01:29 199 19.4
2018-Jun-25 01:24 199 19.4
2018-Jun-25 01:19 199 19.4
2018-Jun-25 01:14 199 19.4
2018-Jun-25 01:09 199 19.4
2018-Jun-25 01:04 199 19.4
2018-Jun-25 00:59 199 19.4
2018-Jun-25 00:54 199 19.4
2018-Jun-25 00:49 199 19.4
2018-Jun-25 00:44 199 19.4
2018-Jun-25 00:39 199 19.4
2018-Jun-25 00:34 199 19.4
2018-Jun-25 00:29 199 19.4
2018-Jun-25 00:24 199 19.4
2018-Jun-25 00:19 199 19.4
2018-Jun-25 00:14 199 19.4
2018-Jun-25 00:09 199 19.4
2018-Jun-25 00:04 199 19.4
2018-Jun-24 23:59 199 19.4
2018-Jun-24 23:54 199 0 gusting 2 20.0
2018-Jun-24 23:49 199 20.0
2018-Jun-24 23:44 199 20.0
2018-Jun-24 23:39 200 20.0
2018-Jun-24 23:34 250 20.0
2018-Jun-24 23:29 250 20.0
2018-Jun-24 23:24 250 20.0
2018-Jun-24 23:19 250 20.0
2018-Jun-24 23:14 250 20.0
2018-Jun-24 23:09 250 20.0
2018-Jun-24 23:04 250 20.0
2018-Jun-24 22:59 250 20.0
2018-Jun-24 22:54 250 20.0
2018-Jun-24 22:49 250 0 gusting 2 20.0
2018-Jun-24 22:44 271 1 gusting 2 20.0
2018-Jun-24 22:39 258 1 gusting 4 20.0
2018-Jun-24 22:34 297 0 gusting 2 20.6
2018-Jun-24 22:29 270 0 gusting 2 20.6
2018-Jun-24 22:24 262 0 gusting 4 20.6
2018-Jun-24 22:19 268 2 gusting 4 20.6
2018-Jun-24 22:14 246 2 gusting 5 20.6
2018-Jun-24 22:09 267 1 gusting 4 20.6
2018-Jun-24 22:04 250 2 gusting 5 20.6
2018-Jun-24 21:59 259 2 gusting 6 20.6
2018-Jun-24 21:54 267 1 gusting 5 20.6
2018-Jun-24 21:49 261 1 gusting 4 20.6
2018-Jun-24 21:44 265 1 gusting 5 20.6
2018-Jun-24 21:39 270 1 gusting 5 20.6
2018-Jun-24 21:34 269 1 gusting 4 20.6
2018-Jun-24 21:29 290 1 gusting 5 20.6
2018-Jun-24 21:24 260 2 gusting 5 20.6
2018-Jun-24 21:19 294 2 gusting 6 20.6
2018-Jun-24 21:14 283 2 gusting 6 20.6
2018-Jun-24 21:09 296 2 gusting 6 20.6
2018-Jun-24 21:04 287 2 gusting 6 20.6
2018-Jun-24 20:59 290 2 gusting 5 20.6
2018-Jun-24 20:54 304 2 gusting 5 20.6
2018-Jun-24 20:49 293 3 gusting 6 21.1
2018-Jun-24 20:44 293 2 gusting 5 21.1
2018-Jun-24 20:39 290 1 gusting 5 21.1
2018-Jun-24 20:34 251 2 gusting 5 21.1
2018-Jun-24 20:29 289 2 gusting 6 21.1
2018-Jun-24 20:24 259 2 gusting 5 21.1
2018-Jun-24 20:19 256 2 gusting 6 21.1
2018-Jun-24 20:14 257 1 gusting 6 21.1
2018-Jun-24 20:09 289 2 gusting 6 21.1
2018-Jun-24 20:04 282 2 gusting 6 21.1
2018-Jun-24 19:59 279 2 gusting 6 21.1
2018-Jun-24 19:54 295 4 gusting 7 21.1
2018-Jun-24 19:49 299 5 gusting 8 21.7
2018-Jun-24 19:44 303 5 gusting 7 21.7
2018-Jun-24 19:39 307 4 gusting 6 22.2
2018-Jun-24 19:34 301 3 gusting 7 22.8
2018-Jun-24 19:29 294 5 gusting 6 22.8
2018-Jun-24 19:24 280 2 gusting 5 22.8
2018-Jun-24 19:19 227 1 gusting 6 22.8
2018-Jun-24 19:14 135 1 gusting 2 22.8
2018-Jun-24 19:09 164 1 gusting 6 22.8
2018-Jun-24 19:04 161 2 gusting 6 22.2
2018-Jun-24 18:59 173 2 gusting 5 22.2
2018-Jun-24 18:54 158 4 gusting 7 22.2
2018-Jun-24 18:49 158 4 gusting 7 21.7
2018-Jun-24 18:44 158 2 gusting 7 22.2
2018-Jun-24 18:39 156 3 gusting 6 21.7
2018-Jun-24 18:34 135 1 gusting 7 21.7
2018-Jun-24 18:29 174 4 gusting 7 21.1
2018-Jun-24 18:24 172 3 gusting 6 21.7
2018-Jun-24 18:19 166 3 gusting 7 21.7
2018-Jun-24 18:14 151 2 gusting 10 21.7
2018-Jun-24 18:09 149 4 gusting 10 21.7
2018-Jun-24 18:04 167 3 gusting 7 21.7
2018-Jun-24 17:59 152 4 gusting 7 21.7
2018-Jun-24 17:54 160 4 gusting 7 21.7
2018-Jun-24 17:49 158 5 gusting 8 21.7
2018-Jun-24 17:44 159 5 gusting 10 21.7
2018-Jun-24 17:39 183 4 gusting 10 21.7
2018-Jun-24 17:34 140 4 gusting 10 21.7
2018-Jun-24 17:29 118 4 gusting 10 21.7
2018-Jun-24 17:24 167 5 gusting 7 21.7
2018-Jun-24 17:19 151 5 gusting 10 21.7
2018-Jun-24 17:14 132 5 gusting 8 21.7
2018-Jun-24 17:09 151 6 gusting 10 21.7
2018-Jun-24 17:04 115 3 gusting 8 22.2
2018-Jun-24 16:59 123 4 gusting 7 21.7
2018-Jun-24 16:54 159 5 gusting 10 21.7
2018-Jun-24 16:49 148 4 gusting 10 21.7
2018-Jun-24 16:44 147 5 gusting 8 21.7
2018-Jun-24 16:39 155 4 gusting 8 22.2
2018-Jun-24 16:34 126 5 gusting 12 22.2
2018-Jun-24 16:29 101 4 gusting 11 22.2
2018-Jun-24 16:24 145 5 gusting 10 22.2
2018-Jun-24 16:19 156 6 gusting 11 21.7
2018-Jun-24 16:14 149 6 gusting 10 21.7
2018-Jun-24 16:09 154 5 gusting 8 22.2
2018-Jun-24 16:04 143 4 gusting 7 22.2
2018-Jun-24 15:59 164 4 gusting 8 22.2
2018-Jun-24 15:54 153 5 gusting 10 22.2
2018-Jun-24 15:49 163 4 gusting 10 22.2
2018-Jun-24 15:44 144 5 gusting 8 22.8
2018-Jun-24 15:39 129 4 gusting 8 22.8
2018-Jun-24 15:34 131 4 gusting 7 22.8
2018-Jun-24 15:29 130 4 gusting 8 22.8
2018-Jun-24 15:19 106 5 gusting 7 22.2
2018-Jun-24 15:14 144 5 gusting 10 22.8
2018-Jun-24 15:09 148 5 gusting 10 23.3
2018-Jun-24 15:04 115 4 gusting 7 23.3
2018-Jun-24 14:59 142 5 gusting 10 23.3
2018-Jun-24 14:54 122 4 gusting 7 23.3
2018-Jun-24 14:49 138 5 gusting 10 23.9
2018-Jun-24 14:44 141 4 gusting 7 23.9
2018-Jun-24 14:39 137 3 gusting 6 23.9
2018-Jun-24 14:34 143 4 gusting 10 23.9
2018-Jun-24 14:29 111 4 gusting 7 23.3
2018-Jun-24 14:24 131 4 gusting 7 23.3
2018-Jun-24 14:19 147 5 gusting 8 23.3
2018-Jun-24 14:14 119 4 gusting 8 23.3
2018-Jun-24 14:09 107 3 gusting 7 23.9
2018-Jun-24 14:04 125 4 gusting 7 23.3
2018-Jun-24 13:59 159 4 gusting 7 23.9
2018-Jun-24 13:54 122 4 gusting 6 23.3
2018-Jun-24 13:49 131 4 gusting 7 23.3
2018-Jun-24 13:44 096 5 gusting 8 23.3
2018-Jun-24 13:39 112 3 gusting 6 22.8
2018-Jun-24 13:34 151 3 gusting 10 22.8
2018-Jun-24 13:29 137 4 gusting 10 22.8
2018-Jun-24 13:24 147 4 gusting 7 22.8
2018-Jun-24 13:19 144 4 gusting 10 23.3
2018-Jun-24 13:14 149 2 gusting 6 23.3
2018-Jun-24 13:09 125 4 gusting 7 23.3
2018-Jun-24 13:04 125 4 gusting 8 23.3
2018-Jun-24 12:59 131 2 gusting 6 23.3
2018-Jun-24 12:54 153 5 gusting 10 23.3
2018-Jun-24 12:49 134 4 gusting 6 23.3
2018-Jun-24 12:44 160 4 gusting 6 22.8
2018-Jun-24 12:39 172 4 gusting 6 22.8
2018-Jun-24 12:34 152 3 gusting 8 22.8
2018-Jun-24 12:29 143 4 gusting 7 23.3
2018-Jun-24 12:24 133 2 gusting 7 22.8
2018-Jun-24 12:19 153 4 gusting 7 22.8
2018-Jun-24 12:14 143 4 gusting 8 22.8
2018-Jun-24 12:09 158 4 gusting 6 23.3
2018-Jun-24 12:04 143 4 gusting 10 23.3
2018-Jun-24 11:59 156 2 gusting 6 22.8
2018-Jun-24 11:54 169 4 gusting 7 22.8
2018-Jun-24 11:49 172 4 gusting 8 23.3
2018-Jun-24 11:44 133 4 gusting 7 22.8
2018-Jun-24 11:39 137 5 gusting 8 22.8
2018-Jun-24 11:34 147 1 gusting 6 22.8
2018-Jun-24 11:29 140 2 gusting 6 22.8
2018-Jun-24 11:24 144 4 gusting 6 22.8
2018-Jun-24 11:19 162 3 gusting 10 22.8
2018-Jun-24 11:14 159 4 gusting 7 22.8
2018-Jun-24 11:09 167 4 gusting 7 23.3
2018-Jun-24 11:04 109 2 gusting 7 22.8
2018-Jun-24 10:59 134 1 gusting 6 22.8
2018-Jun-24 10:54 152 4 gusting 8 22.8
2018-Jun-24 10:49 157 4 gusting 8 22.8
2018-Jun-24 10:44 141 3 gusting 6 22.8
2018-Jun-24 10:39 188 2 gusting 5 22.8
2018-Jun-24 10:34 199 4 gusting 7 22.2
2018-Jun-24 10:29 189 2 gusting 6 22.2
2018-Jun-24 10:24 194 2 gusting 5 22.2
2018-Jun-24 10:19 181 1 gusting 6 22.2
2018-Jun-24 10:14 238 2 gusting 6 22.2
2018-Jun-24 10:09 220 3 gusting 6 22.2
2018-Jun-24 10:04 203 2 gusting 6 22.2
2018-Jun-24 09:59 162 2 gusting 6 22.2
2018-Jun-24 09:54 183 1 gusting 6 22.8
2018-Jun-24 09:49 206 2 gusting 6 22.8
2018-Jun-24 09:44 128 1 gusting 6 22.2
2018-Jun-24 09:39 135 2 gusting 6 22.2
2018-Jun-24 09:34 161 1 gusting 5 21.7
2018-Jun-24 09:29 102 0 gusting 6 21.1
2018-Jun-24 09:24 213 1 gusting 4 21.1
2018-Jun-24 09:19 221 0 gusting 2 21.1
2018-Jun-24 09:14 243 1 gusting 2 21.1
2018-Jun-24 09:09 148 0 gusting 2 21.1
2018-Jun-24 09:04 182 0 gusting 4 21.1
2018-Jun-24 08:59 244 1 gusting 2 21.1
2018-Jun-24 08:54 223 1 gusting 4 21.1
2018-Jun-24 08:49 238 0 gusting 5 21.1
2018-Jun-24 08:44 230 1 gusting 5 21.1
2018-Jun-24 08:39 286 21.1
2018-Jun-24 08:34 286 0 gusting 2 20.6
2018-Jun-24 08:29 192 20.6
2018-Jun-24 08:24 231 20.6
2018-Jun-24 08:19 231 0 gusting 5 20.6
2018-Jun-24 08:14 255 2 gusting 5 20.6
2018-Jun-24 08:09 234 0 gusting 2 20.6
2018-Jun-24 08:04 200 1 gusting 2 20.6
2018-Jun-24 07:59 200 0 gusting 5 20.6
2018-Jun-24 07:54 245 1 gusting 4 20.6
2018-Jun-24 07:49 258 0 gusting 2 20.0
2018-Jun-24 07:44 264 0 gusting 2 20.0
2018-Jun-24 07:39 235 0 gusting 2 20.0
2018-Jun-24 07:34 175 0 gusting 2 20.0
2018-Jun-24 07:29 251 2 gusting 4 20.0
2018-Jun-24 07:25 236 1 gusting 4 20.0
2018-Jun-24 07:19 233 2 gusting 5 20.0
2018-Jun-24 07:14 251 2 gusting 4 20.0
2018-Jun-24 07:09 257 2 gusting 5 20.0
2018-Jun-24 07:04 255 0 gusting 2 20.0
2018-Jun-24 06:59 242 2 gusting 4 20.0
2018-Jun-24 06:54 261 2 gusting 4 20.0
2018-Jun-24 06:49 187 0 gusting 1 19.4
2018-Jun-24 06:44 187 0 gusting 2 19.4
2018-Jun-24 06:39 187 0 gusting 2 19.4
2018-Jun-24 06:34 187 0 gusting 2 19.4
2018-Jun-24 06:29 187 0 gusting 2 19.4
2018-Jun-24 06:24 184 0 gusting 2 19.4
2018-Jun-24 06:19 223 1 gusting 4 19.4
2018-Jun-24 06:14 228 2 gusting 5 19.4
2018-Jun-24 06:09 234 1 gusting 2 19.4
2018-Jun-24 06:04 215 0 gusting 2 19.4
2018-Jun-24 05:59 215 0 gusting 2 19.4
2018-Jun-24 05:54 215 0 gusting 2 19.4
2018-Jun-24 05:49 215 1 gusting 2 19.4
2018-Jun-24 05:44 217 0 gusting 2 19.4
2018-Jun-24 05:39 217 19.4
2018-Jun-24 05:34 215 1 gusting 4 19.4
2018-Jun-24 05:29 146 0 gusting 2 19.4
2018-Jun-24 05:24 146 0 gusting 2 19.4
2018-Jun-24 05:19 146 0 gusting 2 19.4
2018-Jun-24 05:14 146 19.4
2018-Jun-24 05:09 146 0 gusting 2 19.4
2018-Jun-24 05:04 163 1 gusting 2 19.4
2018-Jun-24 04:59 169 1 gusting 2 19.4
2018-Jun-24 04:54 120 1 gusting 2 19.4
2018-Jun-24 04:49 120 0 gusting 2 19.4
2018-Jun-24 04:44 120 0 gusting 2 19.4
2018-Jun-24 04:39 120 0 gusting 1 19.4
2018-Jun-24 04:34 120 19.4
2018-Jun-24 04:29 120 19.4
2018-Jun-24 04:24 120 19.4
2018-Jun-24 04:19 120 0 gusting 2 19.4
2018-Jun-24 04:14 120 20.0
2018-Jun-24 04:09 120 19.4
2018-Jun-24 04:04 120 19.4
2018-Jun-24 03:59 120 1 gusting 2 20.0
2018-Jun-24 03:54 120 0 gusting 2 20.0
2018-Jun-24 03:49 117 1 gusting 2 20.0
2018-Jun-24 03:44 154 0 gusting 5 20.0
2018-Jun-24 03:39 147 1 gusting 5 20.0
2018-Jun-24 03:34 132 1 gusting 4 20.0
2018-Jun-24 03:29 141 1 gusting 4 20.0
2018-Jun-24 03:19 163 0 gusting 2 20.0
2018-Jun-24 03:14 163 20.0
2018-Jun-24 03:09 173 20.0
2018-Jun-24 03:04 173 0 gusting 4 20.0
2018-Jun-24 02:59 194 20.0
2018-Jun-24 02:54 197 19.4
2018-Jun-24 02:49 216 19.4
2018-Jun-24 02:44 216 0 gusting 2 19.4
2018-Jun-24 02:39 153 0 gusting 2 19.4
2018-Jun-24 02:34 160 1 gusting 2 19.4
2018-Jun-24 02:29 213 0 gusting 2 19.4
2018-Jun-24 02:24 165 0 gusting 2 19.4
2018-Jun-24 02:19 209 0 gusting 4 19.4
2018-Jun-24 02:14 198 0 gusting 5 20.0
2018-Jun-24 02:09 204 0 gusting 2 20.0
2018-Jun-24 02:04 185 0 gusting 2 20.0
2018-Jun-24 01:59 188 1 gusting 4 20.0
2018-Jun-24 01:54 185 0 gusting 2 20.0
2018-Jun-24 01:49 188 0 gusting 2 20.0
2018-Jun-24 01:44 221 20.0
2018-Jun-24 01:39 229 20.0
2018-Jun-24 01:34 191 1 gusting 2 20.0
2018-Jun-24 01:29 211 1 gusting 2 20.0
2018-Jun-24 01:24 163 20.0
2018-Jun-24 01:19 163 0 gusting 1 20.0
2018-Jun-24 01:14 163 20.0
2018-Jun-24 01:09 163 20.0
2018-Jun-24 01:04 163 0 gusting 2 20.0
2018-Jun-24 00:59 163 0 gusting 2 20.0
2018-Jun-24 00:54 163 1 gusting 4 19.4
2018-Jun-24 00:49 188 0 gusting 5 19.4
2018-Jun-24 00:44 217 1 gusting 4 20.0
2018-Jun-24 00:39 176 1 gusting 4 20.0
2018-Jun-24 00:34 175 0 gusting 2 20.0
2018-Jun-24 00:29 160 0 gusting 2 20.0
2018-Jun-24 00:24 160 0 gusting 2 20.0
2018-Jun-24 00:19 160 20.0
2018-Jun-24 00:14 281 20.0
2018-Jun-24 00:09 287 1 gusting 2 20.0
2018-Jun-24 00:04 169 1 gusting 2 20.0
2018-Jun-23 23:59 169 20.0
2018-Jun-23 23:54 169 20.0
2018-Jun-23 23:49 169 20.0
2018-Jun-23 23:44 169 20.0
2018-Jun-23 23:39 169 20.0
2018-Jun-23 23:34 169 20.0
2018-Jun-23 23:29 169 20.0
2018-Jun-23 23:24 169 20.0
2018-Jun-23 23:19 169 19.4
2018-Jun-23 23:14 169 19.4
2018-Jun-23 23:09 169 19.4
2018-Jun-23 23:04 169 19.4
2018-Jun-23 22:59 169 19.4
2018-Jun-23 22:54 169 0 gusting 1 19.4
2018-Jun-23 22:49 169 19.4
2018-Jun-23 22:44 169 0 gusting 2 19.4
2018-Jun-23 22:39 169 19.4
2018-Jun-23 22:34 169 19.4
2018-Jun-23 22:29 169 19.4
2018-Jun-23 22:24 169 0 gusting 2 19.4
2018-Jun-23 22:19 171 19.4
2018-Jun-23 22:14 167 0 gusting 2 19.4
2018-Jun-23 22:09 156 1 gusting 2 19.4
2018-Jun-23 22:04 111 0 gusting 1 19.4
2018-Jun-23 21:59 111 19.4
2018-Jun-23 21:54 111 0 gusting 2 19.4
2018-Jun-23 21:49 163 0 gusting 4 19.4
2018-Jun-23 21:44 139 0 gusting 2 19.4
2018-Jun-23 21:39 162 0 gusting 2 19.4
2018-Jun-23 21:34 162 0 gusting 2 19.4
2018-Jun-23 21:29 146 0 gusting 4 19.4
2018-Jun-23 21:24 146 0 gusting 2 19.4
2018-Jun-23 21:19 133 0 gusting 2 19.4
2018-Jun-23 21:14 138 1 gusting 2 19.4
2018-Jun-23 21:09 138 1 gusting 4 19.4
2018-Jun-23 21:04 138 19.4
2018-Jun-23 20:59 138 19.4
2018-Jun-23 20:54 148 1 gusting 4 19.4
2018-Jun-23 20:49 138 0 gusting 2 19.4
2018-Jun-23 20:44 136 0 gusting 2 19.4
2018-Jun-23 20:39 155 0 gusting 2 19.4
2018-Jun-23 20:34 161 1 gusting 2 20.0
2018-Jun-23 20:29 140 0 gusting 2 20.0
2018-Jun-23 20:24 127 0 gusting 2 20.0
2018-Jun-23 20:19 148 2 gusting 4 20.0
2018-Jun-23 20:14 116 20.0
2018-Jun-23 20:09 116 1 gusting 5 20.0
2018-Jun-23 20:04 143 0 gusting 2 20.0
2018-Jun-23 19:59 143 1 gusting 2 20.0
2018-Jun-23 19:54 132 0 gusting 5 20.0
2018-Jun-23 19:49 140 2 gusting 6 20.0
2018-Jun-23 19:44 132 2 gusting 4 20.6
2018-Jun-23 19:39 152 1 gusting 6 20.6
2018-Jun-23 19:34 140 1 gusting 6 20.6
2018-Jun-23 19:29 144 3 gusting 6 20.6
2018-Jun-23 19:24 110 2 gusting 6 20.6
2018-Jun-23 19:19 139 2 gusting 6 21.1
2018-Jun-23 19:14 141 3 gusting 6 21.1
2018-Jun-23 19:09 141 2 gusting 7 21.1
2018-Jun-23 19:04 111 2 gusting 7 21.1
2018-Jun-23 18:59 145 1 gusting 6 21.1
2018-Jun-23 18:54 135 2 gusting 7 21.1
2018-Jun-23 18:49 122 2 gusting 6 21.1
2018-Jun-23 18:44 102 1 gusting 6 21.1
2018-Jun-23 18:39 147 3 gusting 6 21.1
2018-Jun-23 18:34 139 2 gusting 6 21.1
2018-Jun-23 18:29 148 3 gusting 6 21.1
2018-Jun-23 18:24 100 1 gusting 6 21.1
2018-Jun-23 18:19 135 2 gusting 6 21.1
2018-Jun-23 18:14 126 2 gusting 6 21.1
2018-Jun-23 18:09 120 2 gusting 6 21.1
2018-Jun-23 18:04 147 2 gusting 6 21.1
2018-Jun-23 17:59 119 3 gusting 6 21.7
2018-Jun-23 17:54 115 3 gusting 6 21.7
2018-Jun-23 17:49 112 2 gusting 5 22.2
2018-Jun-23 17:44 117 2 gusting 6 22.2
2018-Jun-23 17:39 128 3 gusting 6 22.2
2018-Jun-23 17:34 136 3 gusting 6 22.2
2018-Jun-23 17:29 139 4 gusting 6 22.2
2018-Jun-23 17:24 139 4 gusting 7 22.2
2018-Jun-23 17:19 118 4 gusting 8 22.8
2018-Jun-23 17:14 108 4 gusting 8 22.8
2018-Jun-23 17:09 152 4 gusting 8 23.3
2018-Jun-23 17:04 126 2 gusting 5 22.8
2018-Jun-23 16:59 147 3 gusting 6 22.8
2018-Jun-23 16:54 201 3 gusting 6 22.8
2018-Jun-23 16:49 271 2 gusting 6 22.8
2018-Jun-23 16:44 224 3 gusting 6 22.2
2018-Jun-23 16:39 200 2 gusting 8 22.2
2018-Jun-23 16:34 158 2 gusting 6 22.2
2018-Jun-23 16:29 196 4 gusting 6 22.2
2018-Jun-23 16:24 160 3 gusting 7 22.2
2018-Jun-23 16:19 166 4 gusting 7 22.2
2018-Jun-23 16:14 180 2 gusting 5 22.2
2018-Jun-23 16:09 196 4 gusting 6 22.2
2018-Jun-23 16:04 185 4 gusting 8 21.7
2018-Jun-23 15:59 187 5 gusting 7 22.2
2018-Jun-23 15:54 189 3 gusting 6 22.2
2018-Jun-23 15:49 165 5 gusting 10 22.2
2018-Jun-23 15:44 211 6 gusting 10 22.2
2018-Jun-23 15:39 195 3 gusting 8 22.8
2018-Jun-23 15:34 193 5 gusting 10 22.8
2018-Jun-23 15:29 224 6 gusting 11 22.8
2018-Jun-23 15:19 206 3 gusting 10 22.8
2018-Jun-23 15:14 205 6 gusting 10 22.8
2018-Jun-23 15:09 226 5 gusting 10 22.8
2018-Jun-23 15:04 226 5 gusting 10 22.8